DEBUT (ORIZURU)

Satellite information

Favourite Embed

Satellite Type and Status

PAYLOADIN ORBIT

Key statistics

Satellite DEBUT (ORIZURU) at a glance.

Uptime

13044

Days in orbit

Revolutions

≈ 12.8

Per day

Orbit

SSO

Sun Synchronous Orbit

Inclination

99.0

Latest

Satellite identification and parameters

Extended collection of information and parameters for DEBUT (ORIZURU).

Object identification

Identified? True

Debris? True

Object name: DEBUT (ORIZURU)

International designator: 1990-013B

Object number (NORAD): 20479

Object ID (CCSDS): 20479

Country: JAPAN (JPN)

Current information (Y/N): Y

RCS size: MEDIUM

Orbital parameters

Period: 112.148 minutes

Inclination: 99.0398 deg

SMA: 7703.497 km

Apoapsis: 1739.866 km

Periapsis: 910.858 km

RAAN: 263.6031 deg

Eccentricy: 0.0538073

Argument of periapsis: 305.7181 deg

Mean anomaly: 49.4982 deg

Mean motion: 12.84017303 rev/day

Mean motion (dot): 0.00000022 rev/day2

B* drag term: 0.00013028 1/REarth

Two-line elements (TLE)

Creation date: Oct. 23, 2025, 10:16 p.m.

Reference frame: TEME

Reference center: EARTH

Epoch: Oct. 23, 2025, 11:57 a.m. UTC

TLE line 0: 0 DEBUT (ORIZURU)

TLE line 1: 1 20479U 90013B 25296.49822873 .00000022 00000-0 13028-3 0 9993

TLE line 2: 2 20479 99.0398 263.6031 0538073 305.7181 49.4982 12.84017303673195

Live tracking on map

Real-time ground track for satellite DEBUT (ORIZURU).

In-orbit conjunctions

There are no conjunctions computed for DEBUT (ORIZURU), at the moment. Check back to stay up to date, as we update our databases every day.

Go to all conjunctions

Associated space launch

Japanese Earth observation satellite

DEBUT (ORIZURU) was lifted into orbit during the mission ‘H-1 | Momo 1b’, on board a H-1 space rocket.

The launch took place on Feb. 7, 1990, 1:33 a.m. from Osaki Launch Complex.

For more information about the launch, click the button.

Launch to space H-1 | Momo 1b
H-1 | Momo 1b

Agency: N/A

Status: Launch Successful

Launch date: Feb. 7, 1990, 1:33 a.m. UTC

Rocket: H-1

Launch pad: Osaki Launch Complex

Location: Tanegashima Space Center, Japan

...

Latest news about this satellite

There are no fresh news available about this satellite. Check back as we update our databases every day.


Newsletter sign-up

Weekly statistics, charts and insights to help you stay on top of the space industry.